LOT3904 EPKK-EPWA

Flight info

Callsign LOT3904
Flight time 0h 29m
Altitude 21000
Route POBOK M985 KOTEK M866 LOGDA
Aircraft B738/M-SDE2E3FGHIRWXY/LB1

Departure

Time 2026-05-07 17:15
Airport Kraków John Paul II International Airport (EPKK)

Arrival

Time 2026-05-07 17:45
Airport Warsaw Chopin Airport (EPWA)
Time Latitude Longitude Altitude Speed Heading
2026-05-07 16:49 50.07333 19.80209 789 ft 0 kts 167°
2026-05-07 17:03 50.07342 19.80206 789 ft 2 kts 166°
2026-05-07 17:04 50.07358 19.80201 789 ft 2 kts 167°
2026-05-07 17:04 50.07374 19.80195 789 ft 2 kts 168°
2026-05-07 17:04 50.07390 19.80190 789 ft 2 kts 168°
2026-05-07 17:04 50.07406 19.80185 789 ft 2 kts 155°
2026-05-07 17:05 50.07417 19.80166 789 ft 2 kts 100°
2026-05-07 17:05 50.07418 19.80144 789 ft 1 kts 81°
2026-05-07 17:05 50.07417 19.80141 789 ft 0 kts 79°
2026-05-07 17:07 50.07421 19.80168 789 ft 8 kts 79°
2026-05-07 17:08 50.07438 19.80296 789 ft 14 kts 78°
2026-05-07 17:08 50.07506 19.80395 789 ft 14 kts 16°
2026-05-07 17:08 50.07600 19.80420 789 ft 14 kts 352°
2026-05-07 17:08 50.07690 19.80389 789 ft 13 kts 348°
2026-05-07 17:09 50.07777 19.80360 789 ft 13 kts 347°
2026-05-07 17:09 50.07838 19.80338 789 ft 3 kts 347°
2026-05-07 17:09 50.07844 19.80336 789 ft 0 kts 347°
2026-05-07 17:11 50.07845 19.80336 789 ft 1 kts 347°
2026-05-07 17:12 50.07871 19.80327 789 ft 8 kts 347°
2026-05-07 17:12 50.07943 19.80302 789 ft 13 kts 347°
2026-05-07 17:12 50.08016 19.80241 788 ft 12 kts 282°
2026-05-07 17:12 50.08013 19.80194 789 ft 0 kts 258°
2026-05-07 17:14 50.08012 19.80189 789 ft 3 kts 258°
2026-05-07 17:15 50.07984 19.79986 788 ft 52 kts 257°
2026-05-07 17:15 50.07854 19.79051 790 ft 123 kts 258°
2026-05-07 17:15 50.07630 19.77449 857 ft 174 kts 258°
2026-05-07 17:15 50.07385 19.75525 1521 ft 186 kts 257°
2026-05-07 17:16 50.07102 19.73538 2468 ft 188 kts 256°
2026-05-07 17:16 50.06799 19.71470 2965 ft 208 kts 256°
2026-05-07 17:16 50.06467 19.69146 3305 ft 227 kts 258°
2026-05-07 17:16 50.06553 19.66650 3881 ft 240 kts 287°
2026-05-07 17:17 50.07389 19.64393 4740 ft 249 kts 306°
2026-05-07 17:17 50.08833 19.62705 5236 ft 274 kts 337°
2026-05-07 17:17 50.10688 19.61960 5846 ft 282 kts 345°
2026-05-07 17:17 50.12645 19.61465 6511 ft 292 kts 358°
2026-05-07 17:18 50.14640 19.62106 7377 ft 296 kts 21°
2026-05-07 17:18 50.16486 19.63554 8251 ft 299 kts 29°
2026-05-07 17:18 50.18293 19.65209 9077 ft 304 kts 31°
2026-05-07 17:18 50.20114 19.66936 9916 ft 308 kts 31°
2026-05-07 17:19 50.21973 19.68704 10465 ft 322 kts 31°
2026-05-07 17:19 50.23965 19.70588 10681 ft 346 kts 31°
2026-05-07 17:19 50.26072 19.72551 11249 ft 356 kts 30°
2026-05-07 17:19 50.28217 19.74530 12017 ft 360 kts 30°
2026-05-07 17:20 50.30384 19.76525 12821 ft 363 kts 30°
2026-05-07 17:20 50.32569 19.78539 13592 ft 367 kts 30°
2026-05-07 17:20 50.34784 19.80584 14273 ft 372 kts 30°
2026-05-07 17:20 50.37024 19.82657 14917 ft 377 kts 30°
2026-05-07 17:21 50.39293 19.84761 15578 ft 381 kts 30°
2026-05-07 17:21 50.41591 19.86895 16212 ft 386 kts 30°
2026-05-07 17:21 50.43912 19.89054 16874 ft 390 kts 30°
2026-05-07 17:21 50.46248 19.91229 17684 ft 389 kts 30°
2026-05-07 17:22 50.48572 19.93397 18502 ft 388 kts 30°
2026-05-07 17:22 50.50886 19.95557 19214 ft 387 kts 30°
2026-05-07 17:22 50.53197 19.97717 19933 ft 386 kts 30°
2026-05-07 17:22 50.55503 19.99875 20614 ft 387 kts 30°
2026-05-07 17:23 50.57820 20.02045 20923 ft 387 kts 30°
2026-05-07 17:23 50.60133 20.04215 20952 ft 388 kts 30°
2026-05-07 17:23 50.62448 20.06378 20956 ft 386 kts 29°
2026-05-07 17:23 50.64810 20.08364 20959 ft 384 kts 26°
2026-05-07 17:24 50.67206 20.10217 20965 ft 383 kts 25°
2026-05-07 17:24 50.69610 20.12029 20967 ft 383 kts 25°
2026-05-07 17:24 50.72015 20.13838 20966 ft 383 kts 25°
2026-05-07 17:24 50.74417 20.15661 20962 ft 381 kts 25°
2026-05-07 17:25 50.76761 20.17456 20944 ft 370 kts 25°
2026-05-07 17:25 50.79050 20.19222 20947 ft 363 kts 25°
2026-05-07 17:25 50.81311 20.20975 20954 ft 362 kts 25°
2026-05-07 17:25 50.83579 20.22739 20933 ft 364 kts 25°
2026-05-07 17:26 50.85861 20.24519 20684 ft 364 kts 25°
2026-05-07 17:26 50.88125 20.26287 20412 ft 363 kts 25°
2026-05-07 17:26 50.90354 20.28032 20090 ft 361 kts 25°
2026-05-07 17:26 50.92629 20.29814 19768 ft 359 kts 25°
2026-05-07 17:27 50.94860 20.31564 19447 ft 357 kts 25°
2026-05-07 17:27 50.97076 20.33304 19133 ft 355 kts 25°
2026-05-07 17:27 50.99287 20.35043 18815 ft 353 kts 25°
2026-05-07 17:27 51.01484 20.36771 18494 ft 352 kts 25°
2026-05-07 17:28 51.03675 20.38497 18166 ft 351 kts 25°
2026-05-07 17:28 51.05857 20.40218 17808 ft 350 kts 25°
2026-05-07 17:28 51.08039 20.41940 17460 ft 349 kts 25°
2026-05-07 17:28 51.10208 20.43654 17101 ft 348 kts 25°
2026-05-07 17:29 51.12373 20.45367 16795 ft 347 kts 25°
2026-05-07 17:29 51.14529 20.47074 16473 ft 345 kts 25°
2026-05-07 17:29 51.16675 20.48775 16150 ft 343 kts 25°
2026-05-07 17:29 51.18809 20.50469 15832 ft 342 kts 25°
2026-05-07 17:30 51.20906 20.52135 15521 ft 341 kts 25°
2026-05-07 17:30 51.23022 20.53818 15199 ft 340 kts 25°
2026-05-07 17:30 51.25132 20.55497 14882 ft 338 kts 25°
2026-05-07 17:30 51.27238 20.57174 14569 ft 337 kts 25°
2026-05-07 17:31 51.29337 20.58849 14248 ft 337 kts 25°
2026-05-07 17:31 51.31428 20.60518 13929 ft 336 kts 25°
2026-05-07 17:31 51.33512 20.62184 13588 ft 335 kts 25°
2026-05-07 17:31 51.35592 20.63848 13230 ft 334 kts 25°
2026-05-07 17:32 51.37662 20.65506 12886 ft 331 kts 25°
2026-05-07 17:32 51.39696 20.67138 12562 ft 323 kts 25°
2026-05-07 17:32 51.41570 20.68643 12269 ft 316 kts 25°
2026-05-07 17:32 51.43529 20.70217 11969 ft 314 kts 25°
2026-05-07 17:33 51.45475 20.71781 11666 ft 312 kts 25°
2026-05-07 17:33 51.47407 20.73335 11365 ft 310 kts 25°
2026-05-07 17:33 51.49327 20.74882 11066 ft 308 kts 25°
2026-05-07 17:33 51.51236 20.76421 10766 ft 307 kts 25°
2026-05-07 17:34 51.53138 20.77955 10473 ft 305 kts 25°
2026-05-07 17:34 51.55032 20.79485 10169 ft 304 kts 25°
2026-05-07 17:34 51.56901 20.80997 10016 ft 297 kts 25°
2026-05-07 17:34 51.58745 20.82490 9713 ft 296 kts 25°
2026-05-07 17:35 51.60580 20.83975 9405 ft 295 kts 25°
2026-05-07 17:35 51.62408 20.85458 9103 ft 293 kts 25°
2026-05-07 17:35 51.64225 20.86932 8807 ft 292 kts 25°
2026-05-07 17:35 51.66032 20.88400 8520 ft 290 kts 25°
2026-05-07 17:36 51.67827 20.89859 8233 ft 289 kts 25°
2026-05-07 17:36 51.69617 20.91315 7938 ft 287 kts 25°
2026-05-07 17:36 51.71397 20.92765 7655 ft 286 kts 25°
2026-05-07 17:36 51.73169 20.94209 7358 ft 285 kts 25°
2026-05-07 17:37 51.74934 20.95650 7076 ft 284 kts 25°
2026-05-07 17:37 51.76690 20.97084 6796 ft 282 kts 25°
2026-05-07 17:37 51.78441 20.98515 6513 ft 281 kts 25°
2026-05-07 17:37 51.80182 20.99939 6218 ft 280 kts 25°
2026-05-07 17:38 51.81917 21.01360 5921 ft 279 kts 25°
2026-05-07 17:38 51.83646 21.02777 5624 ft 278 kts 25°
2026-05-07 17:38 51.85371 21.04192 5331 ft 277 kts 25°
2026-05-07 17:38 51.87088 21.05602 5062 ft 275 kts 25°
2026-05-07 17:39 51.88768 21.06983 4948 ft 267 kts 25°
2026-05-07 17:39 51.90405 21.08329 4822 ft 260 kts 25°
2026-05-07 17:39 51.91989 21.09633 4697 ft 251 kts 25°
2026-05-07 17:39 51.93502 21.10879 4607 ft 243 kts 25°
2026-05-07 17:40 51.95009 21.12121 4410 ft 239 kts 25°
2026-05-07 17:40 51.96540 21.13113 4142 ft 237 kts
2026-05-07 17:40 51.98113 21.12783 3911 ft 224 kts 336°
2026-05-07 17:40 51.99486 21.11711 3676 ft 216 kts 329°
2026-05-07 17:41 52.00787 21.10573 3462 ft 209 kts 329°
2026-05-07 17:41 52.02042 21.09466 3264 ft 203 kts 329°
2026-05-07 17:41 52.03273 21.08383 3146 ft 201 kts 329°
2026-05-07 17:41 52.04508 21.07297 2887 ft 199 kts 329°
2026-05-07 17:42 52.05707 21.06245 2610 ft 192 kts 329°
2026-05-07 17:42 52.06862 21.05229 2371 ft 186 kts 330°
2026-05-07 17:42 52.07964 21.04263 2130 ft 177 kts 330°
2026-05-07 17:42 52.09010 21.03348 1879 ft 165 kts 330°
2026-05-07 17:43 52.09969 21.02505 1716 ft 152 kts 330°
2026-05-07 17:43 52.10905 21.01681 1490 ft 152 kts 331°
2026-05-07 17:43 52.11831 21.00864 1250 ft 150 kts 331°
2026-05-07 17:43 52.12735 21.00037 1037 ft 147 kts 331°
2026-05-07 17:44 52.13637 20.99268 811 ft 147 kts 334°
2026-05-07 17:44 52.14537 20.98493 597 ft 146 kts 331°
2026-05-07 17:44 52.15431 20.97708 404 ft 145 kts 332°
2026-05-07 17:44 52.16276 20.96968 337 ft 122 kts 332°
2026-05-07 17:45 52.16898 20.96431 337 ft 80 kts 332°
2026-05-07 17:45 52.17250 20.96125 336 ft 37 kts 338°
2026-05-07 17:45 52.17471 20.96066 335 ft 20 kts
2026-05-07 17:45 52.17545 20.96072 334 ft 9 kts 13°
2026-05-07 17:46 52.17583 20.96119 331 ft 6 kts 66°
2026-05-07 17:46 52.17581 20.96191 334 ft 8 kts 106°
2026-05-07 17:46 52.17534 20.96274 335 ft 13 kts 149°
2026-05-07 17:46 52.17451 20.96353 336 ft 14 kts 134°
2026-05-07 17:47 52.17463 20.96496 333 ft 13 kts 66°
2026-05-07 17:47 52.17424 20.96609 335 ft 13 kts 152°
2026-05-07 17:47 52.17346 20.96676 331 ft 13 kts 152°
2026-05-07 17:47 52.17275 20.96738 333 ft 9 kts 152°
2026-05-07 17:48 52.17236 20.96785 332 ft 7 kts 105°
2026-05-07 17:48 52.17255 20.96857 332 ft 7 kts 61°
2026-05-07 17:48 52.17270 20.96900 332 ft 2 kts 62°
2026-05-07 17:48 52.17272 20.96906 332 ft 0 kts 62°